DW8834 Millville NJ US current weather conditions

sailwx.info

Wind from 214 at 1 knots gusting 4

Air temperature 29.4° C
Dewpoint 23.1° C

Last reported at 2020-Jul-12 00:01 UTC.
Time now 2020-Jul-12 00:27 UTC

Location: N 39°25' W 074°60'.
View on Google Maps.

See reports from other nearby stations

  
Tides and Currents Weather Stations Pressure Air Temp Water Temp Dewpoint Dewpoint Depression Visibility Wind Speed Wind Dir Waves Ship Positions
date/time (UTC)wind fromknots sea level pressurealtimeterstation pressurevisibilityair tempwater tempwave heightnotes
2020-Jul-12 00:01 214 1 gusting 4 29.4
2020-Jul-11 23:51 260 0 gusting 3 30.0
2020-Jul-11 23:41 237 0 gusting 3 31.1
2020-Jul-11 23:31 273 0 gusting 2 31.7
2020-Jul-11 23:21 222 0 gusting 3 31.1
2020-Jul-11 23:11 208 1 gusting 2 30.6
2020-Jul-11 23:01 225 1 gusting 3 30.6
2020-Jul-11 22:51 232 1 gusting 3 30.6
2020-Jul-11 22:41 214 2 gusting 3 30.6
2020-Jul-11 22:31 233 1 gusting 5 31.7
2020-Jul-11 22:21 214 2 gusting 5 31.1
2020-Jul-11 22:11 218 2 gusting 6 30.6
2020-Jul-11 22:01 214 2 gusting 5 30.6
2020-Jul-11 21:51 210 2 gusting 5 30.0
2020-Jul-11 21:41 244 1 gusting 4 30.6
2020-Jul-11 21:31 221 2 gusting 4 30.6
2020-Jul-11 21:21 220 2 gusting 6 31.1
2020-Jul-11 21:11 218 2 gusting 6 31.1
2020-Jul-11 21:01 202 2 gusting 5 31.1
2020-Jul-11 20:51 215 1 gusting 5 31.1
2020-Jul-11 20:41 220 2 gusting 5 30.6
2020-Jul-11 20:31 210 2 gusting 5 30.6
2020-Jul-11 20:21 207 2 gusting 6 31.7
2020-Jul-11 20:11 210 3 gusting 5 31.1
2020-Jul-11 20:01 220 2 gusting 4 32.2
2020-Jul-11 19:51 215 4 gusting 6 31.1
2020-Jul-11 19:41 214 2 gusting 6 31.7
2020-Jul-11 19:31 205 2 gusting 6 32.2
2020-Jul-11 19:21 201 3 gusting 6 31.7
2020-Jul-11 19:11 217 3 gusting 6 31.1
2020-Jul-11 19:01 204 2 gusting 6 30.6
2020-Jul-11 18:51 217 2 gusting 6 30.6
2020-Jul-11 18:41 215 3 gusting 6 30.6
2020-Jul-11 18:31 223 2 gusting 5 31.1
2020-Jul-11 18:21 236 1 gusting 5 30.6
2020-Jul-11 18:11 206 2 gusting 6 30.6
2020-Jul-11 18:01 196 2 gusting 6 30.0
2020-Jul-11 17:51 266 2 gusting 5 30.0
2020-Jul-11 17:41 238 2 gusting 4 30.6
2020-Jul-11 17:31 201 1 gusting 3 30.0
2020-Jul-11 17:21 208 1 gusting 3 30.0
2020-Jul-11 17:11 209 0 gusting 2 29.4
2020-Jul-11 17:01 232 0 gusting 4 28.9
2020-Jul-11 16:51 221 1 gusting 3 29.4
2020-Jul-11 16:41 212 1 gusting 5 29.4
2020-Jul-11 16:31 211 1 gusting 4 28.9
2020-Jul-11 16:21 198 1 gusting 5 28.9
2020-Jul-11 16:11 216 2 gusting 5 28.9
2020-Jul-11 16:01 210 1 gusting 4 28.3
2020-Jul-11 15:51 214 1 gusting 5 28.3
2020-Jul-11 15:41 253 1 gusting 3 28.3
2020-Jul-11 15:31 226 2 gusting 4 28.3
2020-Jul-11 15:21 217 2 gusting 5 28.9
2020-Jul-11 15:11 207 2 gusting 4 28.9
2020-Jul-11 15:01 239 1 gusting 4 28.9
2020-Jul-11 14:51 217 1 gusting 4 28.9
2020-Jul-11 14:41 233 0 gusting 2 29.4
2020-Jul-11 14:31 265 1 gusting 4 28.9
2020-Jul-11 14:21 248 1 gusting 4 28.9
2020-Jul-11 14:11 224 1 gusting 4 28.3
2020-Jul-11 14:01 241 2 gusting 3 27.8
2020-Jul-11 13:51 202 0 gusting 2 27.2
2020-Jul-11 13:41 252 0 gusting 2 27.2
2020-Jul-11 13:31 251 1 gusting 2 27.2
2020-Jul-11 13:21 205 1 gusting 4 26.7
2020-Jul-11 13:11 246 1 gusting 2 26.7
2020-Jul-11 13:01 219 1 gusting 4 26.7
2020-Jul-11 12:41 307 1 gusting 1 26.1
2020-Jul-11 12:31 266 1 gusting 4 26.1
2020-Jul-11 12:21 279 0 gusting 1 25.6
2020-Jul-11 12:11 301 2 gusting 6 25.6
2020-Jul-11 12:01 240 0 gusting 1 25.0
2020-Jul-11 11:51 197 1 gusting 4 25.0
2020-Jul-11 11:41 203 1 gusting 3 25.0
2020-Jul-11 11:31 236 1 gusting 3 25.0
2020-Jul-11 11:21 202 1 gusting 3 25.0
2020-Jul-11 11:11 193 1 gusting 3 24.4
2020-Jul-11 11:01 158 1 gusting 2 24.4
2020-Jul-11 10:11 202 0 gusting 1 23.9
2020-Jul-11 10:01 202 0 gusting 1 23.9
2020-Jul-11 09:51 212 0 gusting 2 23.9
2020-Jul-11 09:41 199 1 gusting 3 23.9
2020-Jul-11 09:31 196 0 gusting 2 23.9
2020-Jul-11 09:21 184 0 gusting 2 23.9
2020-Jul-11 09:11 198 0 gusting 3 23.9
2020-Jul-11 09:01 199 1 gusting 2 23.9
2020-Jul-11 08:51 196 1 gusting 3 23.9
2020-Jul-11 05:01 158 2 gusting 3 22.8
2020-Jul-11 04:51 195 0 gusting 2 22.8
2020-Jul-11 04:41 202 1 gusting 1 22.8
2020-Jul-11 03:51 211 1 gusting 3 22.8
2020-Jul-11 03:41 225 0 gusting 2 22.8
2020-Jul-11 03:31 196 1 gusting 2 22.8
2020-Jul-11 03:21 221 0 gusting 4 22.8
2020-Jul-11 03:11 214 22.8
2020-Jul-11 03:01 234 0 gusting 2 22.8
2020-Jul-11 02:51 244 22.8
2020-Jul-11 02:41 234 0 gusting 2 22.8
2020-Jul-11 02:31 217 0 gusting 2 22.8
2020-Jul-11 02:21 225 22.8
2020-Jul-11 02:11 195 0 gusting 2 22.8
2020-Jul-11 02:01 251 1 gusting 5 22.8
2020-Jul-11 01:51 250 1 gusting 4 22.8
2020-Jul-11 01:41 287 1 gusting 6 22.8
2020-Jul-11 01:31 262 2 gusting 5 22.8
2020-Jul-11 01:21 259 1 gusting 6 22.8
2020-Jul-11 01:11 286 2 gusting 5 22.8
2020-Jul-11 01:01 254 1 gusting 5 22.8
2020-Jul-11 00:51 257 2 gusting 6 22.8
2020-Jul-11 00:41 247 2 gusting 6 22.8
2020-Jul-11 00:31 245 1 gusting 5 22.8
2020-Jul-11 00:21 289 2 gusting 7 22.8
2020-Jul-11 00:11 266 1 gusting 6 22.8
2020-Jul-11 00:01 254 1 gusting 6 22.8
2020-Jul-10 23:51 254 1 gusting 4 22.8
2020-Jul-10 23:41 271 1 gusting 4 22.8
2020-Jul-10 23:31 255 2 gusting 7 22.8
2020-Jul-10 23:21 246 2 gusting 5 23.3
2020-Jul-10 23:11 246 2 gusting 6 23.3
2020-Jul-10 23:01 228 1 gusting 6 23.3
2020-Jul-10 22:51 249 0 gusting 2 23.3
2020-Jul-10 22:41 265 1 gusting 6 23.3
2020-Jul-10 22:31 252 1 gusting 3 23.3
2020-Jul-10 22:21 254 1 gusting 4 23.3
2020-Jul-10 22:11 194 0 gusting 2 23.3
2020-Jul-10 22:01 263 1 gusting 6 23.3
2020-Jul-10 21:51 236 1 gusting 5 23.3
2020-Jul-10 21:41 190 0 gusting 4 23.9
2020-Jul-10 21:31 215 1 gusting 6 23.9
2020-Jul-10 21:21 198 0 gusting 3 24.4
2020-Jul-10 21:11 248 0 gusting 4 24.4
2020-Jul-10 21:01 347 24.4
2020-Jul-10 20:51 185 24.4
2020-Jul-10 20:41 180 24.4
2020-Jul-10 20:31 110 24.4
2020-Jul-10 20:21 127 24.4
2020-Jul-10 20:11 311 24.4
2020-Jul-10 20:01 113 24.4
2020-Jul-10 19:51 093 0 gusting 2 23.9
2020-Jul-10 19:41 137 23.9
2020-Jul-10 19:31 038 23.9
2020-Jul-10 19:21 090 23.9
2020-Jul-10 19:11 078 0 gusting 2 23.9
2020-Jul-10 19:02 077 23.3
2020-Jul-10 18:51 086 0 gusting 2 23.3
2020-Jul-10 18:41 075 0 gusting 2 23.9
2020-Jul-10 18:31 092 0 gusting 1 23.3
2020-Jul-10 18:21 055 0 gusting 2 23.3
2020-Jul-10 18:11 066 23.9
2020-Jul-10 18:01 044 0 gusting 2 23.9
2020-Jul-10 17:51 068 0 gusting 3 23.3
2020-Jul-10 17:41 075 1 gusting 3 23.3
2020-Jul-10 17:31 039 0 gusting 3 23.3
2020-Jul-10 17:21 066 0 gusting 2 23.3
2020-Jul-10 17:11 068 23.3
2020-Jul-10 17:01 225 23.3
2020-Jul-10 16:51 043 0 gusting 3 23.3
2020-Jul-10 16:41 083 0 gusting 2 22.8
2020-Jul-10 16:31 093 1 gusting 3 22.8
2020-Jul-10 16:21 091 0 gusting 3 22.8
2020-Jul-10 16:11 097 1 gusting 3 22.2
2020-Jul-10 16:01 068 2 gusting 4 22.2
2020-Jul-10 15:51 064 1 gusting 4 22.2
2020-Jul-10 15:41 054 1 gusting 5 22.2
2020-Jul-10 15:31 076 1 gusting 4 22.2
2020-Jul-10 15:21 065 2 gusting 5 22.2
2020-Jul-10 15:11 062 3 gusting 6 22.2
2020-Jul-10 15:01 076 2 gusting 5 22.2
2020-Jul-10 14:51 071 2 gusting 6 22.2
2020-Jul-10 14:41 079 2 gusting 5 22.2
2020-Jul-10 14:31 072 2 gusting 4 22.2
2020-Jul-10 14:21 076 1 gusting 5 22.8
2020-Jul-10 14:11 071 1 gusting 4 22.8
2020-Jul-10 14:01 056 2 gusting 6 22.8
2020-Jul-10 13:51 088 2 gusting 4 22.8
2020-Jul-10 13:41 073 2 gusting 6 22.8
2020-Jul-10 13:31 087 1 gusting 5 23.3
2020-Jul-10 13:21 060 2 gusting 6 23.3
2020-Jul-10 13:11 072 2 gusting 6 23.3
2020-Jul-10 13:01 074 2 gusting 4 23.3
2020-Jul-10 12:51 083 0 gusting 2 23.3
2020-Jul-10 12:41 068 1 gusting 3 23.3
2020-Jul-10 12:31 067 1 gusting 3 23.3
2020-Jul-10 12:21 069 1 gusting 3 23.3
2020-Jul-10 12:11 073 1 gusting 3 22.8
2020-Jul-10 12:01 048 0 gusting 3 22.8
2020-Jul-10 11:51 077 0 gusting 2 22.8
2020-Jul-10 11:41 051 0 gusting 2 22.8
2020-Jul-10 11:31 058 1 gusting 2 22.8
2020-Jul-10 11:21 077 0 gusting 2 22.8
2020-Jul-10 11:11 072 1 gusting 2 22.8
2020-Jul-10 11:01 052 1 gusting 2 22.8
2020-Jul-10 10:51 056 1 gusting 2 22.8
2020-Jul-10 10:41 056 22.8
2020-Jul-10 10:31 090 22.8
2020-Jul-10 10:21 045 22.8
2020-Jul-10 10:11 045 22.8
2020-Jul-10 10:01 045 22.8
2020-Jul-10 09:51 068 22.8
2020-Jul-10 09:41 067 23.3
2020-Jul-10 09:31 083 23.3
2020-Jul-10 09:21 085 0 gusting 1 23.3
2020-Jul-10 09:11 045 23.3
2020-Jul-10 09:01 045 23.3
2020-Jul-10 08:51 023 23.3
2020-Jul-10 08:41 023 23.3
2020-Jul-10 08:31 023 23.3
2020-Jul-10 08:21 023 23.3
2020-Jul-10 08:11 023 23.3
2020-Jul-10 08:01 023 23.3
2020-Jul-10 07:51 023 23.3
2020-Jul-10 07:41 023 23.3
2020-Jul-10 07:31 023 23.3
2020-Jul-10 07:21 023 23.3
2020-Jul-10 07:11 023 23.3
2020-Jul-10 07:01 023 23.3
2020-Jul-10 06:51 045 23.3
2020-Jul-10 06:41 045 23.3
2020-Jul-10 06:31 045 23.3
2020-Jul-10 06:21 045 23.3
2020-Jul-10 06:11 045 23.3
2020-Jul-10 06:01 045 23.3
2020-Jul-10 05:51 045 23.3
2020-Jul-10 05:41 045 23.3
2020-Jul-10 05:31 045 23.3
2020-Jul-10 05:21 045 23.3
2020-Jul-10 05:11 045 23.3
2020-Jul-10 05:01 045 23.3
2020-Jul-10 04:51 045 23.3
2020-Jul-10 04:41 045 23.3
2020-Jul-10 04:31 045 23.3
2020-Jul-10 04:21 360 23.3
2020-Jul-10 04:11 360 23.3
2020-Jul-10 04:01 360 23.3
2020-Jul-10 03:51 360 23.3
2020-Jul-10 03:41 360 23.3
2020-Jul-10 03:31 360 23.3
2020-Jul-10 03:21 360 23.3
2020-Jul-10 03:11 360 23.3
2020-Jul-10 03:01 360 23.9
2020-Jul-10 02:51 360 23.9
2020-Jul-10 02:41 360 23.9
2020-Jul-10 02:31 360 23.9
2020-Jul-10 02:21 360 23.9
2020-Jul-10 02:11 360 24.4
2020-Jul-10 02:01 360 24.4
2020-Jul-10 01:51 360 24.4
2020-Jul-10 01:41 360 24.4
2020-Jul-10 01:31 360 24.4
2020-Jul-10 01:21 360 24.4
2020-Jul-10 01:11 293 25.0
2020-Jul-10 01:01 068 25.0
2020-Jul-10 00:51 045 25.0
2020-Jul-10 00:41 045 25.6
2020-Jul-10 00:31 045 26.1
2020-Jul-10 00:21 071 0 gusting 1 26.7
2020-Jul-10 00:11 062 26.7
2020-Jul-10 00:01 206 27.2